Location: Splawn
(30.9202°N, 96.9858°W)
Time: 06:01:00
(UTC+00:00)

LightSail 2 - Visible Passes

Search period start: 22 January 2020 00:00
Search period end: 01 February 2020 00:00
Orbit: 704 x 720 km, 24.0° (Epoch: 21 January)

Date Brightness Start Highest point End Pass type
(mag) Time Alt. Az. Time Alt. Az. Time Alt. Az.
22 Jan 6.4 00:12:59 10° SW 00:17:36 33° S 00:22:14 10° ESE visible
22 Jan 6.1 01:57:58 10° WSW 02:02:44 38° S 02:02:44 38° S visible
23 Jan 6.2 00:59:37 10° WSW 01:04:24 39° S 01:08:00 16° ESE visible
23 Jan 7.4 02:45:01 10° WSW 02:46:57 20° SW 02:46:57 20° SW visible
24 Jan 6.2 01:46:33 10° WSW 01:51:13 34° S 01:52:17 31° SSE visible
25 Jan 6.3 00:48:07 10° WSW 00:52:52 37° S 00:57:36 10° ESE visible
25 Jan 7.2 02:33:51 10° WSW 02:36:35 21° SW 02:36:35 21° SW visible
26 Jan 6.7 01:35:15 10° WSW 01:39:37 28° SSW 01:41:59 20° SSE visible
27 Jan 6.6 00:36:43 10° WSW 00:41:17 32° S 00:45:52 10° SE visible
27 Jan 7.3 02:23:02 10° WSW 02:26:17 17° SSW 02:26:26 17° SSW visible
28 Jan 7.2 01:24:08 10° WSW 01:27:59 21° SSW 01:31:49 10° SSE visible
29 Jan 7.1 00:25:27 10° WSW 00:29:39 25° SSW 00:33:52 10° SE visible
29 Jan 7.8 02:13:27 10° SW 02:14:35 11° SSW 02:15:42 10° S visible
30 Jan 7.6 01:13:31 10° SW 01:16:17 15° SSW 01:19:03 10° SSE visible
